Wetterdaten: Woche 10.01.11 - 16.01.11 (KW2)
Datum Zeit Temp. Innen Temp. Aussen UV X Diff Temp. Feuchte Inne Feuchte Auss Sonnenschein Luftdruck Regen ab 0,1 Wind Sonnenschein T Regendauer Windben
10.01.2011 00:00 11,9 C 0,4 C 0,0 UV-I 0,0 C 54 % 91 % 0 % 1021,3 hPa 0,0 l/m 0,0 km/h (0 Bft) 0,00 h 0,00 h 0,0 km/h (0 Bft)
10.01.2011 01:00 11,8 C 0,3 C 0,0 UV-I 0,0 C 54 % 92 % 0 % 1021,6 hPa 0,0 l/m 0,0 km/h (0 Bft) 0,00 h 0,00 h 0,0 km/h (0 Bft)
10.01.2011 02:00 11,7 C 0,5 C 0,0 UV-I 0,0 C 54 % 93 % 0 % 1021,9 hPa 0,0 l/m 0,0 km/h (0 Bft) 0,00 h 0,00 h 0,0 km/h (0 Bft)
10.01.2011 03:00 11,6 C 0,7 C 0,0 UV-I 0,0 C 54 % 93 % 0 % 1022,1 hPa 0,0 l/m 0,4 km/h (0 Bft) 0,00 h 0,00 h 0,3 km/h (0 Bft)
10.01.2011 04:00 11,6 C 0,6 C 0,0 UV-I 0,0 C 54 % 93 % 0 % 1022,6 hPa 0,0 l/m 0,1 km/h (0 Bft) 0,00 h 0,00 h 0,0 km/h (0 Bft)
10.01.2011 05:00 11,6 C 0,2 C 0,0 UV-I 0,0 C 54 % 93 % 0 % 1022,6 hPa 0,0 l/m 0,1 km/h (0 Bft) 0,00 h 0,00 h 0,3 km/h (0 Bft)
10.01.2011 06:00 11,4 C -0,4 C 0,0 UV-I 0,0 C 53 % 93 % 0 % 1022,8 hPa 0,0 l/m 0,1 km/h (0 Bft) 0,00 h 0,00 h 0,0 km/h (0 Bft)
10.01.2011 07:00 11,3 C -0,7 C 0,0 UV-I 0,0 C 53 % 93 % 0 % 1023,1 hPa 0,0 l/m 0,2 km/h (0 Bft) 0,00 h 0,00 h 0,6 km/h (0 Bft)
10.01.2011 08:00 11,2 C -0,9 C 0,0 UV-I 0,0 C 53 % 93 % 0 % 1023,3 hPa 0,0 l/m 1,0 km/h (0 Bft) 0,00 h 0,00 h 2,1 km/h (1 Bft)
10.01.2011 09:00 11,2 C -0,6 C 0,0 UV-I 0,1 C 53 % 94 % 2 % 1023,6 hPa 0,0 l/m 2,7 km/h (1 Bft) 0,00 h 0,00 h 3,9 km/h (1 Bft)
10.01.2011 10:00 11,3 C 0,1 C 0,0 UV-I 4,0 C 53 % 94 % 92 % 1023,7 hPa 0,0 l/m 5,5 km/h (1 Bft) 0,97 h 0,00 h 7,0 km/h (2 Bft)
10.01.2011 11:00 11,5 C 1,7 C 0,0 UV-I 4,2 C 53 % 93 % 100 % 1024,0 hPa 0,1 l/m 8,7 km/h (2 Bft) 1,00 h 0,00 h 10,3 km/h (2 Bft)
10.01.2011 12:00 11,6 C 2,2 C 0,0 UV-I 3,0 C 52 % 91 % 85 % 1023,6 hPa 0,0 l/m 10,3 km/h (2 Bft) 0,87 h 0,00 h 11,8 km/h (2 Bft)
10.01.2011 13:00 12,0 C 2,0 C 0,0 UV-I 2,7 C 52 % 90 % 78 % 1023,1 hPa 0,0 l/m 9,1 km/h (2 Bft) 0,80 h 0,00 h 10,3 km/h (2 Bft)
10.01.2011 14:00 13,1 C 2,7 C 0,0 UV-I 3,0 C 50 % 89 % 84 % 1023,6 hPa 0,0 l/m 8,5 km/h (2 Bft) 1,00 h 0,00 h 9,2 km/h (2 Bft)
10.01.2011 15:00 13,6 C 2,5 C 0,0 UV-I 0,3 C 48 % 89 % 8 % 1022,7 hPa 0,0 l/m 7,5 km/h (2 Bft) 0,00 h 0,00 h 8,6 km/h (2 Bft)
10.01.2011 16:00 13,0 C 2,2 C 0,0 UV-I 0,0 C 48 % 89 % 0 % 1021,5 hPa 0,0 l/m 8,3 km/h (2 Bft) 0,00 h 0,00 h 9,1 km/h (2 Bft)
10.01.2011 17:00 12,3 C 1,9 C 0,0 UV-I 0,0 C 49 % 89 % 0 % 1020,7 hPa 0,0 l/m 10,2 km/h (2 Bft) 0,00 h 0,00 h 11,4 km/h (2 Bft)
10.01.2011 18:00 11,8 C 1,6 C 0,0 UV-I 0,0 C 50 % 89 % 0 % 1020,1 hPa 0,0 l/m 11,3 km/h (2 Bft) 0,00 h 0,00 h 11,8 km/h (2 Bft)
10.01.2011 19:00 11,6 C 1,1 C 0,0 UV-I 0,0 C 51 % 90 % 0 % 1019,7 hPa 0,0 l/m 12,4 km/h (3 Bft) 0,00 h 0,00 h 12,3 km/h (3 Bft)
10.01.2011 20:00 11,4 C 0,7 C 0,0 UV-I 0,0 C 51 % 90 % 0 % 1019,0 hPa 0,0 l/m 12,1 km/h (2 Bft) 0,00 h 0,00 h 13,6 km/h (3 Bft)
10.01.2011 21:00 11,2 C 0,8 C 0,0 UV-I 0,0 C 51 % 90 % 0 % 1018,8 hPa 0,0 l/m 12,2 km/h (2 Bft) 0,00 h 0,00 h 14,2 km/h (3 Bft)
10.01.2011 22:00 11,1 C 0,8 C 0,0 UV-I 0,0 C 51 % 89 % 0 % 1017,8 hPa 0,0 l/m 12,8 km/h (3 Bft) 0,00 h 0,00 h 14,7 km/h (3 Bft)
10.01.2011 23:00 11,2 C 0,7 C 0,0 UV-I 0,0 C 51 % 89 % 0 % 1017,1 hPa 0,0 l/m 13,9 km/h (3 Bft) 0,00 h 0,00 h 14,7 km/h (3 Bft)
11.01.2011 00:00 11,0 C 0,6 C 0,0 UV-I 0,0 C 51 % 88 % 0 % 1016,4 hPa 0,0 l/m 15,8 km/h (3 Bft) 0,00 h 0,00 h 19,9 km/h (4 Bft)
11.01.2011 01:00 10,9 C 0,6 C 0,0 UV-I 0,0 C 51 % 88 % 0 % 1015,4 hPa 0,0 l/m 13,7 km/h (3 Bft) 0,00 h 0,00 h 13,9 km/h (3 Bft)
11.01.2011 02:00 10,8 C 0,7 C 0,0 UV-I 0,0 C 51 % 88 % 0 % 1015,0 hPa 0,0 l/m 11,2 km/h (2 Bft) 0,00 h 0,00 h 12,2 km/h (2 Bft)
11.01.2011 03:00 10,8 C 0,6 C 0,0 UV-I 0,0 C 51 % 88 % 0 % 1013,4 hPa 0,0 l/m 9,9 km/h (2 Bft) 0,00 h 0,00 h 11,3 km/h (2 Bft)
11.01.2011 04:00 10,8 C 0,6 C 0,0 UV-I 0,0 C 51 % 88 % 0 % 1012,2 hPa 0,0 l/m 11,4 km/h (2 Bft) 0,00 h 0,00 h 13,0 km/h (3 Bft)
11.01.2011 05:00 10,9 C 0,6 C 0,0 UV-I 0,0 C 51 % 89 % 0 % 1010,5 hPa 0,0 l/m 10,1 km/h (2 Bft) 0,00 h 0,00 h 12,1 km/h (2 Bft)
11.01.2011 06:00 10,8 C 0,7 C 0,0 UV-I 0,0 C 51 % 89 % 0 % 1009,4 hPa 0,0 l/m 11,4 km/h (2 Bft) 0,00 h 0,00 h 12,6 km/h (3 Bft)
11.01.2011 07:00 10,8 C 0,8 C 0,0 UV-I 0,0 C 51 % 90 % 0 % 1008,2 hPa 0,0 l/m 12,2 km/h (2 Bft) 0,00 h 0,00 h 15,2 km/h (3 Bft)
11.01.2011 08:00 10,8 C 1,2 C 0,0 UV-I 0,0 C 51 % 90 % 0 % 1007,5 hPa 0,0 l/m 11,3 km/h (2 Bft) 0,00 h 0,00 h 12,8 km/h (3 Bft)
11.01.2011 09:00 10,8 C 2,1 C 0,0 UV-I 0,0 C 51 % 89 % 0 % 1006,5 hPa 0,0 l/m 11,9 km/h (2 Bft) 0,00 h 0,00 h 12,9 km/h (3 Bft)
11.01.2011 10:00 11,0 C 2,9 C 0,0 UV-I 0,0 C 52 % 89 % 0 % 1006,1 hPa 0,7 l/m 13,1 km/h (3 Bft) 0,00 h 0,00 h 14,0 km/h (3 Bft)
11.01.2011 11:00 11,2 C 3,1 C 0,0 UV-I 0,0 C 52 % 90 % 0 % 1005,6 hPa 0,7 l/m 13,7 km/h (3 Bft) 0,00 h 0,00 h 15,0 km/h (3 Bft)
11.01.2011 12:00 11,3 C 3,4 C 0,0 UV-I 0,0 C 53 % 91 % 0 % 1004,8 hPa 0,1 l/m 14,9 km/h (3 Bft) 0,00 h 0,00 h 16,6 km/h (3 Bft)
11.01.2011 13:00 11,4 C 4,1 C 0,0 UV-I 0,0 C 53 % 90 % 0 % 1004,4 hPa 0,0 l/m 7,6 km/h (2 Bft) 0,00 h 0,00 h 8,6 km/h (2 Bft)
11.01.2011 14:00 11,5 C 4,4 C 0,0 UV-I 0,0 C 54 % 90 % 0 % 1004,6 hPa 0,0 l/m 7,2 km/h (2 Bft) 0,00 h 0,00 h 8,5 km/h (2 Bft)
11.01.2011 15:00 11,6 C 4,5 C 0,0 UV-I 0,0 C 54 % 90 % 0 % 1005,1 hPa 0,1 l/m 4,1 km/h (1 Bft) 0,00 h 0,00 h 4,7 km/h (1 Bft)
11.01.2011 16:00 11,6 C 5,2 C 0,0 UV-I 0,0 C 56 % 92 % 0 % 1005,9 hPa 0,0 l/m 5,1 km/h (1 Bft) 0,00 h 0,00 h 6,6 km/h (2 Bft)
11.01.2011 17:00 11,6 C 5,5 C 0,0 UV-I 0,0 C 57 % 92 % 0 % 1006,9 hPa 0,0 l/m 4,7 km/h (1 Bft) 0,00 h 0,00 h 4,1 km/h (1 Bft)
11.01.2011 18:00 11,6 C 5,7 C 0,0 UV-I 0,0 C 58 % 93 % 0 % 1007,9 hPa 0,0 l/m 4,1 km/h (1 Bft) 0,00 h 0,00 h 5,4 km/h (1 Bft)
11.01.2011 19:00 11,5 C 6,1 C 0,0 UV-I 0,0 C 61 % 93 % 0 % 1008,6 hPa 0,0 l/m 5,1 km/h (1 Bft) 0,00 h 0,00 h 5,3 km/h (1 Bft)
11.01.2011 20:00 11,2 C 6,3 C 0,0 UV-I 0,0 C 63 % 93 % 0 % 1009,9 hPa 0,0 l/m 3,5 km/h (1 Bft) 0,00 h 0,00 h 5,0 km/h (1 Bft)
11.01.2011 21:00 11,4 C 6,4 C 0,0 UV-I 0,0 C 63 % 93 % 0 % 1011,0 hPa 0,0 l/m 8,0 km/h (2 Bft) 0,00 h 0,00 h 10,1 km/h (2 Bft)
11.01.2011 22:00 11,6 C 6,2 C 0,0 UV-I 0,0 C 62 % 92 % 0 % 1011,9 hPa 0,0 l/m 9,3 km/h (2 Bft) 0,00 h 0,00 h 10,2 km/h (2 Bft)
11.01.2011 23:00 11,6 C 5,9 C 0,0 UV-I 0,0 C 62 % 93 % 0 % 1013,0 hPa 0,0 l/m 8,0 km/h (2 Bft) 0,00 h 0,00 h 8,3 km/h (2 Bft)
12.01.2011 00:00 11,7 C 5,8 C 0,0 UV-I 0,0 C 61 % 92 % 0 % 1014,2 hPa 0,0 l/m 7,1 km/h (2 Bft) 0,00 h 0,00 h 7,9 km/h (2 Bft)
12.01.2011 01:00 11,8 C 5,6 C 0,0 UV-I 0,0 C 60 % 90 % 0 % 1015,2 hPa 0,0 l/m 7,2 km/h (2 Bft) 0,00 h 0,00 h 8,8 km/h (2 Bft)
12.01.2011 02:00 11,9 C 5,5 C 0,0 UV-I 0,0 C 58 % 88 % 0 % 1016,3 hPa 0,0 l/m 5,5 km/h (1 Bft) 0,00 h 0,00 h 6,6 km/h (2 Bft)
12.01.2011 03:00 11,9 C 5,4 C 0,0 UV-I 0,0 C 57 % 86 % 0 % 1017,6 hPa 0,0 l/m 5,3 km/h (1 Bft) 0,00 h 0,00 h 7,1 km/h (2 Bft)
12.01.2011 04:00 11,9 C 5,2 C 0,0 UV-I 0,0 C 57 % 88 % 0 % 1018,7 hPa 0,0 l/m 6,3 km/h (2 Bft) 0,00 h 0,00 h 7,3 km/h (2 Bft)
12.01.2011 05:00 11,9 C 4,9 C 0,0 UV-I 0,0 C 57 % 88 % 0 % 1018,7 hPa 0,0 l/m 4,8 km/h (1 Bft) 0,00 h 0,00 h 5,6 km/h (1 Bft)
12.01.2011 06:00 11,9 C 4,7 C 0,0 UV-I 0,0 C 57 % 88 % 0 % 1019,0 hPa 0,0 l/m 1,7 km/h (1 Bft) 0,00 h 0,00 h 1,9 km/h (1 Bft)
12.01.2011 07:00 11,9 C 4,4 C 0,0 UV-I 0,0 C 56 % 88 % 0 % 1019,4 hPa 0,0 l/m 0,9 km/h (0 Bft) 0,00 h 0,00 h 1,9 km/h (1 Bft)
12.01.2011 08:00 11,8 C 4,4 C 0,0 UV-I 0,0 C 57 % 89 % 0 % 1019,1 hPa 0,0 l/m 2,1 km/h (1 Bft) 0,00 h 0,00 h 3,7 km/h (1 Bft)
12.01.2011 09:00 11,9 C 4,5 C 0,0 UV-I 0,0 C 57 % 90 % 0 % 1018,9 hPa 0,0 l/m 2,0 km/h (1 Bft) 0,00 h 0,00 h 3,0 km/h (1 Bft)
12.01.2011 10:00 12,0 C 4,9 C 0,0 UV-I 0,0 C 57 % 90 % 0 % 1018,4 hPa 0,0 l/m 4,3 km/h (1 Bft) 0,00 h 0,00 h 5,2 km/h (1 Bft)
12.01.2011 11:00 12,1 C 5,4 C 0,0 UV-I 0,0 C 56 % 88 % 0 % 1018,1 hPa 0,1 l/m 5,0 km/h (1 Bft) 0,00 h 0,00 h 6,3 km/h (2 Bft)
12.01.2011 12:00 12,1 C 5,3 C 0,0 UV-I 0,0 C 57 % 90 % 0 % 1017,0 hPa 0,5 l/m 4,7 km/h (1 Bft) 0,00 h 0,00 h 5,5 km/h (1 Bft)
12.01.2011 13:00 12,2 C 5,3 C 0,0 UV-I 0,0 C 58 % 91 % 0 % 1015,8 hPa 0,5 l/m 5,8 km/h (2 Bft) 0,00 h 0,00 h 6,9 km/h (2 Bft)
12.01.2011 14:00 12,2 C 5,2 C 0,0 UV-I 0,0 C 58 % 92 % 0 % 1014,5 hPa 0,7 l/m 7,3 km/h (2 Bft) 0,00 h 0,00 h 8,5 km/h (2 Bft)
12.01.2011 15:00 12,2 C 5,4 C 0,0 UV-I 0,0 C 59 % 93 % 0 % 1013,6 hPa 0,6 l/m 4,9 km/h (1 Bft) 0,00 h 0,00 h 5,1 km/h (1 Bft)
12.01.2011 16:00 12,2 C 6,1 C 0,0 UV-I 0,0 C 60 % 94 % 0 % 1013,2 hPa 0,3 l/m 3,4 km/h (1 Bft) 0,00 h 0,00 h 4,2 km/h (1 Bft)
12.01.2011 17:00 12,3 C 7,0 C 0,0 UV-I 0,0 C 62 % 94 % 0 % 1012,9 hPa 1,2 l/m 6,3 km/h (2 Bft) 0,00 h 0,00 h 6,9 km/h (2 Bft)
12.01.2011 18:00 12,3 C 7,5 C 0,0 UV-I 0,0 C 64 % 94 % 0 % 1012,4 hPa 0,5 l/m 8,8 km/h (2 Bft) 0,00 h 0,00 h 9,7 km/h (2 Bft)
12.01.2011 19:00 12,3 C 7,9 C 0,0 UV-I 0,0 C 65 % 94 % 0 % 1011,9 hPa 0,2 l/m 7,9 km/h (2 Bft) 0,00 h 0,00 h 8,4 km/h (2 Bft)
12.01.2011 20:00 12,4 C 8,4 C 0,0 UV-I 0,0 C 66 % 94 % 0 % 1011,9 hPa 0,6 l/m 8,4 km/h (2 Bft) 0,00 h 0,00 h 10,7 km/h (2 Bft)
12.01.2011 21:00 12,4 C 8,9 C 0,0 UV-I 0,0 C 68 % 95 % 0 % 1011,5 hPa 0,9 l/m 7,9 km/h (2 Bft) 0,00 h 0,00 h 8,6 km/h (2 Bft)
12.01.2011 22:00 12,5 C 9,5 C 0,0 UV-I 0,0 C 69 % 95 % 0 % 1011,4 hPa 0,5 l/m 8,0 km/h (2 Bft) 0,00 h 0,00 h 8,6 km/h (2 Bft)
12.01.2011 23:00 12,7 C 10,0 C 0,0 UV-I 0,0 C 71 % 95 % 0 % 1011,5 hPa 0,6 l/m 7,9 km/h (2 Bft) 0,00 h 0,00 h 8,7 km/h (2 Bft)
13.01.2011 00:00 12,8 C 10,3 C 0,0 UV-I 0,0 C 71 % 95 % 0 % 1011,6 hPa 0,5 l/m 6,8 km/h (2 Bft) 0,00 h 0,00 h 7,6 km/h (2 Bft)
13.01.2011 01:00 12,9 C 10,4 C 0,0 UV-I 0,0 C 71 % 95 % 0 % 1011,9 hPa 0,3 l/m 5,6 km/h (1 Bft) 0,00 h 0,00 h 6,3 km/h (2 Bft)
13.01.2011 02:00 13,1 C 10,5 C 0,0 UV-I 0,0 C 71 % 95 % 0 % 1012,0 hPa 0,3 l/m 5,0 km/h (1 Bft) 0,00 h 0,00 h 6,9 km/h (2 Bft)
13.01.2011 03:00 13,2 C 10,6 C 0,0 UV-I 0,0 C 71 % 95 % 0 % 1012,0 hPa 0,8 l/m 5,5 km/h (1 Bft) 0,00 h 0,00 h 5,8 km/h (2 Bft)
13.01.2011 04:00 13,3 C 10,7 C 0,0 UV-I 0,0 C 71 % 95 % 0 % 1011,9 hPa 0,5 l/m 5,1 km/h (1 Bft) 0,00 h 0,00 h 6,3 km/h (2 Bft)
13.01.2011 05:00 13,4 C 10,7 C 0,0 UV-I 0,0 C 72 % 95 % 0 % 1011,9 hPa 0,7 l/m 4,4 km/h (1 Bft) 0,00 h 0,00 h 5,7 km/h (1 Bft)
13.01.2011 06:00 13,4 C 10,7 C 0,0 UV-I 0,0 C 72 % 95 % 0 % 1011,9 hPa 0,8 l/m 5,8 km/h (2 Bft) 0,00 h 0,00 h 6,8 km/h (2 Bft)
13.01.2011 07:00 13,5 C 10,7 C 0,0 UV-I 0,0 C 73 % 95 % 0 % 1011,8 hPa 1,0 l/m 4,6 km/h (1 Bft) 0,00 h 0,00 h 5,2 km/h (1 Bft)
13.01.2011 08:00 13,6 C 10,8 C 0,0 UV-I 0,0 C 73 % 96 % 0 % 1011,8 hPa 1,2 l/m 3,7 km/h (1 Bft) 0,00 h 0,00 h 4,4 km/h (1 Bft)
13.01.2011 09:00 13,6 C 10,9 C 0,0 UV-I 0,0 C 73 % 96 % 0 % 1011,9 hPa 1,0 l/m 4,3 km/h (1 Bft) 0,00 h 0,00 h 5,6 km/h (1 Bft)
13.01.2011 10:00 13,7 C 11,1 C 0,0 UV-I 0,0 C 73 % 96 % 0 % 1012,2 hPa 1,2 l/m 4,3 km/h (1 Bft) 0,00 h 0,00 h 4,9 km/h (1 Bft)
13.01.2011 11:00 13,9 C 11,5 C 0,0 UV-I 0,0 C 73 % 96 % 0 % 1012,2 hPa 0,6 l/m 6,7 km/h (2 Bft) 0,00 h 0,00 h 7,5 km/h (2 Bft)
13.01.2011 12:00 14,0 C 11,8 C 0,0 UV-I 0,0 C 74 % 95 % 0 % 1012,1 hPa 0,4 l/m 8,8 km/h (2 Bft) 0,00 h 0,00 h 10,7 km/h (2 Bft)
13.01.2011 13:00 14,1 C 12,0 C 0,0 UV-I 0,0 C 74 % 95 % 0 % 1012,0 hPa 0,3 l/m 9,3 km/h (2 Bft) 0,00 h 0,00 h 9,4 km/h (2 Bft)
13.01.2011 14:00 14,2 C 12,1 C 0,0 UV-I 0,0 C 74 % 95 % 0 % 1012,1 hPa 0,1 l/m 9,3 km/h (2 Bft) 0,00 h 0,00 h 9,9 km/h (2 Bft)
13.01.2011 15:00 14,3 C 12,3 C 0,0 UV-I 0,0 C 74 % 95 % 0 % 1012,4 hPa 0,0 l/m 9,0 km/h (2 Bft) 0,00 h 0,00 h 10,3 km/h (2 Bft)
13.01.2011 16:00 14,3 C 12,3 C 0,0 UV-I 0,0 C 74 % 94 % 0 % 1013,2 hPa 0,0 l/m 10,6 km/h (2 Bft) 0,00 h 0,00 h 10,1 km/h (2 Bft)
13.01.2011 17:00 14,4 C 12,1 C 0,0 UV-I 0,0 C 74 % 94 % 0 % 1013,7 hPa 0,0 l/m 9,9 km/h (2 Bft) 0,00 h 0,00 h 11,4 km/h (2 Bft)
13.01.2011 18:00 14,4 C 11,9 C 0,0 UV-I 0,0 C 74 % 94 % 0 % 1014,0 hPa 0,0 l/m 6,4 km/h (2 Bft) 0,00 h 0,00 h 6,9 km/h (2 Bft)
13.01.2011 19:00 14,4 C 11,7 C 0,0 UV-I 0,0 C 74 % 94 % 0 % 1014,4 hPa 0,1 l/m 5,3 km/h (1 Bft) 0,00 h 0,00 h 6,0 km/h (2 Bft)
13.01.2011 20:00 14,3 C 11,7 C 0,0 UV-I 0,0 C 74 % 94 % 0 % 1014,5 hPa 0,0 l/m 4,6 km/h (1 Bft) 0,00 h 0,00 h 5,3 km/h (1 Bft)
13.01.2011 21:00 14,4 C 11,7 C 0,0 UV-I 0,0 C 74 % 94 % 0 % 1014,4 hPa 0,0 l/m 3,7 km/h (1 Bft) 0,00 h 0,00 h 4,4 km/h (1 Bft)
13.01.2011 22:00 14,4 C 11,6 C 0,0 UV-I 0,0 C 74 % 95 % 0 % 1012,9 hPa 1,1 l/m 4,2 km/h (1 Bft) 0,00 h 0,00 h 5,7 km/h (1 Bft)
13.01.2011 23:00 14,4 C 11,7 C 0,0 UV-I 0,0 C 74 % 95 % 0 % 1012,1 hPa 0,6 l/m 3,5 km/h (1 Bft) 0,00 h 0,00 h 4,3 km/h (1 Bft)
14.01.2011 00:00 14,6 C 12,1 C 0,0 UV-I 0,0 C 74 % 95 % 0 % 1011,5 hPa 0,7 l/m 6,9 km/h (2 Bft) 0,00 h 0,00 h 9,1 km/h (2 Bft)
14.01.2011 01:00 14,7 C 12,4 C 0,0 UV-I 0,0 C 75 % 95 % 0 % 1011,3 hPa 0,0 l/m 11,9 km/h (2 Bft) 0,00 h 0,00 h 14,4 km/h (3 Bft)
14.01.2011 02:00 14,9 C 12,5 C 0,0 UV-I 0,0 C 75 % 94 % 0 % 1011,7 hPa 0,1 l/m 12,6 km/h (3 Bft) 0,00 h 0,00 h 14,7 km/h (3 Bft)
14.01.2011 03:00 15,0 C 12,5 C 0,0 UV-I 0,0 C 75 % 94 % 0 % 1012,4 hPa 0,0 l/m 11,6 km/h (2 Bft) 0,00 h 0,00 h 12,3 km/h (3 Bft)
14.01.2011 04:00 15,0 C 12,5 C 0,0 UV-I 0,0 C 75 % 94 % 0 % 1012,9 hPa 0,1 l/m 10,8 km/h (2 Bft) 0,00 h 0,00 h 11,5 km/h (2 Bft)
14.01.2011 05:00 14,9 C 12,4 C 0,0 UV-I 0,0 C 74 % 93 % 0 % 1012,7 hPa 0,0 l/m 8,3 km/h (2 Bft) 0,00 h 0,00 h 9,3 km/h (2 Bft)
14.01.2011 06:00 15,0 C 12,5 C 0,0 UV-I 0,0 C 73 % 91 % 0 % 1012,7 hPa 0,0 l/m 9,5 km/h (2 Bft) 0,00 h 0,00 h 10,9 km/h (2 Bft)
14.01.2011 07:00 15,0 C 12,3 C 0,0 UV-I 0,0 C 71 % 87 % 0 % 1012,8 hPa 0,0 l/m 11,8 km/h (2 Bft) 0,00 h 0,00 h 12,7 km/h (3 Bft)
14.01.2011 08:00 15,0 C 12,2 C 0,0 UV-I 0,0 C 69 % 84 % 0 % 1012,8 hPa 0,0 l/m 11,5 km/h (2 Bft) 0,00 h 0,00 h 13,7 km/h (3 Bft)
14.01.2011 09:00 15,0 C 11,9 C 0,0 UV-I 0,0 C 68 % 84 % 0 % 1013,0 hPa 0,0 l/m 12,3 km/h (3 Bft) 0,00 h 0,00 h 12,4 km/h (3 Bft)
14.01.2011 10:00 15,0 C 11,6 C 0,0 UV-I 0,0 C 68 % 85 % 0 % 1013,4 hPa 0,0 l/m 11,7 km/h (2 Bft) 0,00 h 0,00 h 12,3 km/h (3 Bft)
14.01.2011 11:00 15,0 C 11,8 C 0,0 UV-I 0,0 C 67 % 84 % 0 % 1013,6 hPa 0,0 l/m 11,8 km/h (2 Bft) 0,00 h 0,00 h 12,0 km/h (2 Bft)
14.01.2011 12:00 15,0 C 11,9 C 0,0 UV-I 0,0 C 67 % 84 % 0 % 1013,5 hPa 0,0 l/m 8,8 km/h (2 Bft) 0,00 h 0,00 h 9,5 km/h (2 Bft)
14.01.2011 13:00 15,1 C 11,9 C 0,0 UV-I 0,0 C 67 % 85 % 0 % 1013,0 hPa 0,0 l/m 11,0 km/h (2 Bft) 0,00 h 0,00 h 11,3 km/h (2 Bft)
14.01.2011 14:00 15,1 C 11,9 C 0,0 UV-I 0,0 C 67 % 86 % 0 % 1012,4 hPa 0,0 l/m 9,9 km/h (2 Bft) 0,00 h 0,00 h 12,4 km/h (3 Bft)
14.01.2011 15:00 15,2 C 12,1 C 0,0 UV-I 0,0 C 67 % 85 % 0 % 1012,2 hPa 0,0 l/m 9,4 km/h (2 Bft) 0,00 h 0,00 h 10,5 km/h (2 Bft)
14.01.2011 16:00 15,1 C 11,9 C 0,0 UV-I 0,0 C 67 % 85 % 0 % 1012,1 hPa 0,0 l/m 7,9 km/h (2 Bft) 0,00 h 0,00 h 9,2 km/h (2 Bft)
14.01.2011 17:00 15,0 C 11,8 C 0,0 UV-I 0,0 C 67 % 83 % 0 % 1011,9 hPa 0,1 l/m 8,0 km/h (2 Bft) 0,00 h 0,00 h 10,4 km/h (2 Bft)
14.01.2011 18:00 14,8 C 12,0 C 0,0 UV-I 0,0 C 65 % 79 % 0 % 1011,9 hPa 0,0 l/m 8,0 km/h (2 Bft) 0,00 h 0,00 h 9,3 km/h (2 Bft)
14.01.2011 19:00 14,8 C 11,8 C 0,0 UV-I 0,0 C 65 % 79 % 0 % 1011,7 hPa 0,0 l/m 8,2 km/h (2 Bft) 0,00 h 0,00 h 10,0 km/h (2 Bft)
14.01.2011 20:00 14,8 C 11,0 C 0,0 UV-I 0,0 C 65 % 85 % 0 % 1011,8 hPa 0,3 l/m 9,6 km/h (2 Bft) 0,00 h 0,00 h 11,0 km/h (2 Bft)
14.01.2011 21:00 14,9 C 10,1 C 0,0 UV-I 0,0 C 66 % 90 % 0 % 1012,8 hPa 0,5 l/m 10,0 km/h (2 Bft) 0,00 h 0,00 h 9,6 km/h (2 Bft)
14.01.2011 22:00 14,7 C 9,5 C 0,0 UV-I 0,0 C 67 % 91 % 0 % 1013,5 hPa 0,2 l/m 6,1 km/h (2 Bft) 0,00 h 0,00 h 7,1 km/h (2 Bft)
14.01.2011 23:00 14,7 C 9,3 C 0,0 UV-I 0,0 C 67 % 92 % 0 % 1014,3 hPa 0,1 l/m 8,6 km/h (2 Bft) 0,00 h 0,00 h 10,2 km/h (2 Bft)
15.01.2011 00:00 14,6 C 9,2 C 0,0 UV-I 0,0 C 66 % 91 % 0 % 1015,0 hPa 0,1 l/m 9,0 km/h (2 Bft) 0,00 h 0,00 h 10,5 km/h (2 Bft)
15.01.2011 01:00 14,4 C 9,3 C 0,0 UV-I 0,0 C 66 % 90 % 0 % 1015,7 hPa 0,0 l/m 9,0 km/h (2 Bft) 0,00 h 0,00 h 10,6 km/h (2 Bft)
15.01.2011 02:00 14,3 C 9,2 C 0,0 UV-I 0,0 C 65 % 90 % 0 % 1016,7 hPa 0,0 l/m 7,6 km/h (2 Bft) 0,00 h 0,00 h 8,5 km/h (2 Bft)
15.01.2011 03:00 14,4 C 9,2 C 0,0 UV-I 0,0 C 65 % 89 % 0 % 1017,7 hPa 0,0 l/m 7,0 km/h (2 Bft) 0,00 h 0,00 h 7,1 km/h (2 Bft)
15.01.2011 04:00 14,3 C 9,2 C 0,0 UV-I 0,0 C 64 % 89 % 0 % 1018,5 hPa 0,0 l/m 6,4 km/h (2 Bft) 0,00 h 0,00 h 6,7 km/h (2 Bft)
15.01.2011 05:00 14,2 C 9,0 C 0,0 UV-I 0,0 C 64 % 88 % 0 % 1019,3 hPa 0,0 l/m 5,3 km/h (1 Bft) 0,00 h 0,00 h 6,1 km/h (2 Bft)
15.01.2011 06:00 14,2 C 9,0 C 0,0 UV-I 0,0 C 64 % 88 % 0 % 1019,9 hPa 0,0 l/m 5,7 km/h (1 Bft) 0,00 h 0,00 h 6,1 km/h (2 Bft)
15.01.2011 07:00 14,2 C 9,0 C 0,0 UV-I 0,0 C 63 % 87 % 0 % 1020,6 hPa 0,0 l/m 6,1 km/h (2 Bft) 0,00 h 0,00 h 7,1 km/h (2 Bft)
15.01.2011 08:00 14,2 C 9,1 C 0,0 UV-I 0,0 C 63 % 87 % 0 % 1021,4 hPa 0,0 l/m 6,0 km/h (2 Bft) 0,00 h 0,00 h 7,5 km/h (2 Bft)
15.01.2011 09:00 14,2 C 9,3 C 0,0 UV-I 0,0 C 63 % 86 % 0 % 1021,5 hPa 0,0 l/m 6,5 km/h (2 Bft) 0,00 h 0,00 h 8,2 km/h (2 Bft)
15.01.2011 10:00 14,2 C 9,8 C 0,0 UV-I 0,0 C 63 % 84 % 0 % 1021,5 hPa 0,0 l/m 9,2 km/h (2 Bft) 0,00 h 0,00 h 11,4 km/h (2 Bft)
15.01.2011 11:00 14,3 C 10,0 C 0,0 UV-I 0,0 C 62 % 81 % 0 % 1022,1 hPa 0,0 l/m 8,9 km/h (2 Bft) 0,00 h 0,00 h 9,7 km/h (2 Bft)
15.01.2011 12:00 14,3 C 10,1 C 0,0 UV-I 0,0 C 61 % 81 % 0 % 1022,2 hPa 0,0 l/m 9,0 km/h (2 Bft) 0,00 h 0,00 h 10,1 km/h (2 Bft)
15.01.2011 13:00 14,4 C 10,3 C 0,2 UV-I 0,0 C 61 % 80 % 0 % 1021,6 hPa 0,0 l/m 8,6 km/h (2 Bft) 0,00 h 0,00 h 9,8 km/h (2 Bft)
15.01.2011 14:00 14,5 C 10,5 C 0,2 UV-I 0,1 C 60 % 78 % 3 % 1021,1 hPa 0,0 l/m 8,9 km/h (2 Bft) 0,00 h 0,00 h 10,0 km/h (2 Bft)
15.01.2011 15:00 14,6 C 10,4 C 0,0 UV-I 0,0 C 59 % 77 % 0 % 1021,7 hPa 0,0 l/m 6,4 km/h (2 Bft) 0,00 h 0,00 h 7,2 km/h (2 Bft)
15.01.2011 16:00 14,5 C 10,4 C 0,0 UV-I 0,0 C 59 % 77 % 0 % 1021,6 hPa 0,0 l/m 8,4 km/h (2 Bft) 0,00 h 0,00 h 9,9 km/h (2 Bft)
15.01.2011 17:00 14,4 C 10,3 C 0,0 UV-I 0,0 C 59 % 78 % 0 % 1022,2 hPa 0,0 l/m 7,7 km/h (2 Bft) 0,00 h 0,00 h 10,0 km/h (2 Bft)
15.01.2011 18:00 14,4 C 10,3 C 0,0 UV-I 0,0 C 59 % 77 % 0 % 1022,8 hPa 0,0 l/m 6,8 km/h (2 Bft) 0,00 h 0,00 h 7,7 km/h (2 Bft)
15.01.2011 19:00 14,4 C 9,8 C 0,0 UV-I 0,0 C 59 % 78 % 0 % 1023,2 hPa 0,0 l/m 4,3 km/h (1 Bft) 0,00 h 0,00 h 5,9 km/h (2 Bft)
15.01.2011 20:00 14,3 C 8,9 C 0,0 UV-I 0,0 C 60 % 80 % 0 % 1023,2 hPa 0,0 l/m 3,4 km/h (1 Bft) 0,00 h 0,00 h 5,2 km/h (1 Bft)
15.01.2011 21:00 14,2 C 8,8 C 0,0 UV-I 0,0 C 60 % 82 % 0 % 1023,2 hPa 0,0 l/m 3,4 km/h (1 Bft) 0,00 h 0,00 h 4,4 km/h (1 Bft)
15.01.2011 22:00 14,2 C 9,1 C 0,0 UV-I 0,0 C 59 % 81 % 0 % 1023,3 hPa 0,0 l/m 5,3 km/h (1 Bft) 0,00 h 0,00 h 7,2 km/h (2 Bft)
15.01.2011 23:00 14,2 C 9,0 C 0,0 UV-I 0,0 C 59 % 81 % 0 % 1023,3 hPa 0,0 l/m 5,6 km/h (1 Bft) 0,00 h 0,00 h 6,1 km/h (2 Bft)
16.01.2011 00:00 14,1 C 8,6 C 0,0 UV-I 0,0 C 60 % 83 % 0 % 1023,5 hPa 0,0 l/m 3,1 km/h (1 Bft) 0,00 h 0,00 h 3,9 km/h (1 Bft)
16.01.2011 01:00 14,0 C 7,9 C 0,0 UV-I 0,0 C 60 % 84 % 0 % 1023,6 hPa 0,0 l/m 0,7 km/h (0 Bft) 0,00 h 0,00 h 1,5 km/h (1 Bft)
16.01.2011 02:00 13,9 C 8,0 C 0,0 UV-I 0,0 C 61 % 86 % 0 % 1023,8 hPa 0,0 l/m 1,9 km/h (1 Bft) 0,00 h 0,00 h 3,1 km/h (1 Bft)
16.01.2011 03:00 14,0 C 8,4 C 0,0 UV-I 0,0 C 61 % 86 % 0 % 1023,9 hPa 0,0 l/m 2,1 km/h (1 Bft) 0,00 h 0,00 h 2,8 km/h (1 Bft)
16.01.2011 04:00 14,1 C 8,6 C 0,0 UV-I 0,0 C 61 % 86 % 0 % 1023,8 hPa 0,0 l/m 1,8 km/h (1 Bft) 0,00 h 0,00 h 2,9 km/h (1 Bft)
16.01.2011 05:00 14,1 C 8,4 C 0,0 UV-I 0,0 C 61 % 86 % 0 % 1023,5 hPa 0,0 l/m 1,5 km/h (1 Bft) 0,00 h 0,00 h 1,8 km/h (1 Bft)
16.01.2011 06:00 14,1 C 7,4 C 0,0 UV-I 0,0 C 61 % 87 % 0 % 1023,5 hPa 0,0 l/m 3,6 km/h (1 Bft) 0,00 h 0,00 h 5,1 km/h (1 Bft)
16.01.2011 07:00 14,0 C 7,3 C 0,0 UV-I 0,0 C 61 % 88 % 0 % 1023,7 hPa 0,0 l/m 4,1 km/h (1 Bft) 0,00 h 0,00 h 5,9 km/h (2 Bft)
16.01.2011 08:00 13,9 C 8,2 C 0,0 UV-I 0,0 C 61 % 88 % 0 % 1024,0 hPa 0,0 l/m 3,6 km/h (1 Bft) 0,00 h 0,00 h 4,9 km/h (1 Bft)
16.01.2011 09:00 14,0 C 8,4 C 0,0 UV-I 0,3 C 61 % 87 % 9 % 1024,3 hPa 0,0 l/m 2,6 km/h (1 Bft) 0,13 h 0,00 h 3,3 km/h (1 Bft)
16.01.2011 10:00 14,1 C 9,1 C 0,1 UV-I 1,6 C 61 % 86 % 44 % 1024,4 hPa 0,0 l/m 4,4 km/h (1 Bft) 0,33 h 0,00 h 6,4 km/h (2 Bft)
16.01.2011 11:00 14,3 C 10,4 C 0,2 UV-I 0,9 C 61 % 84 % 25 % 1024,6 hPa 0,0 l/m 3,1 km/h (1 Bft) 0,00 h 0,00 h 5,0 km/h (1 Bft)
16.01.2011 12:00 14,7 C 11,9 C 0,7 UV-I 1,4 C 61 % 79 % 40 % 1024,5 hPa 0,0 l/m 4,8 km/h (1 Bft) 0,00 h 0,00 h 6,4 km/h (2 Bft)
16.01.2011 13:00 15,3 C 13,9 C 1,0 UV-I 4,5 C 60 % 72 % 94 % 1024,6 hPa 0,0 l/m 5,9 km/h (2 Bft) 0,83 h 0,00 h 6,6 km/h (2 Bft)
16.01.2011 14:00 16,2 C 14,2 C 0,6 UV-I 1,6 C 58 % 68 % 42 % 1024,7 hPa 0,0 l/m 5,7 km/h (1 Bft) 0,27 h 0,00 h 6,8 km/h (2 Bft)
16.01.2011 15:00 16,3 C 13,4 C 0,4 UV-I 0,1 C 56 % 68 % 3 % 1024,4 hPa 0,0 l/m 4,4 km/h (1 Bft) 0,00 h 0,00 h 4,3 km/h (1 Bft)
16.01.2011 16:00 15,8 C 12,7 C 0,0 UV-I 0,0 C 56 % 70 % 0 % 1024,1 hPa 0,0 l/m 2,3 km/h (1 Bft) 0,00 h 0,00 h 3,2 km/h (1 Bft)
16.01.2011 17:00 15,4 C 11,5 C 0,0 UV-I 0,0 C 58 % 74 % 0 % 1024,1 hPa 0,0 l/m 1,4 km/h (1 Bft) 0,00 h 0,00 h 2,2 km/h (1 Bft)
16.01.2011 18:00 15,1 C 10,0 C 0,0 UV-I 0,0 C 59 % 80 % 0 % 1024,0 hPa 0,0 l/m 3,7 km/h (1 Bft) 0,00 h 0,00 h 4,7 km/h (1 Bft)
16.01.2011 19:00 14,8 C 8,9 C 0,0 UV-I 0,0 C 59 % 83 % 0 % 1023,8 hPa 0,0 l/m 3,8 km/h (1 Bft) 0,00 h 0,00 h 4,4 km/h (1 Bft)
16.01.2011 20:00 14,7 C 8,2 C 0,0 UV-I 0,0 C 60 % 85 % 0 % 1023,7 hPa 0,0 l/m 4,2 km/h (1 Bft) 0,00 h 0,00 h 5,5 km/h (1 Bft)
16.01.2011 21:00 14,5 C 7,4 C 0,0 UV-I 0,0 C 60 % 86 % 0 % 1023,3 hPa 0,0 l/m 3,3 km/h (1 Bft) 0,00 h 0,00 h 3,5 km/h (1 Bft)
16.01.2011 22:00 14,4 C 6,7 C 0,0 UV-I 0,0 C 60 % 87 % 0 % 1023,2 hPa 0,0 l/m 1,6 km/h (1 Bft) 0,00 h 0,00 h 1,8 km/h (1 Bft)
16.01.2011 23:00 14,2 C 5,8 C 0,0 UV-I 0,0 C 60 % 89 % 0 % 1023,5 hPa 0,0 l/m 1,6 km/h (1 Bft) 0,00 h 0,00 h 1,8 km/h (1 Bft)
Min-Datum _ 11.01.11 10.01.11 10.01.11 10.01.11 10.01.11 16.01.11 10.01.11 11.01.11 - 10.01.11 - - 10.01.11
_ Min-Zeit 01:12 08:00 00:03 00:03 15:40 14:20 00:03 12:46 - 00:03 - - 00:03
Minimum _ 10,8 C -0,9 C 0,0 UV-I 0,0 C 47 % 67 % 0 % 1004,2 hPa - 0,0 km/h (0 Bft) - - 0,0 km/h (0 Bft)
Max-Datum _ 16.01.11 16.01.11 16.01.11 16.01.11 14.01.11 13.01.11 10.01.11 16.01.11 12.01.11 11.01.11 10.01.11 10.01.11 14.01.11
_ Max-Zeit 14:48 13:54 13:04 13:30 00:32 07:46 10:14 14:06 17:02 00:46 10:02 00:03 14:40
Maximum _ 16,4 C 14,7 C 1,1 UV-I 5,8 C 75 % 96 % 100 % 1025,2 hPa 1,2 l/m 18,5 km/h
NO (3 Bft)
0,03 h 0,00 h 39,6 km/h
S-SO (6 Bft)
Durchschnitt _ 13,2 C 7,5 C 0,0 UV-I 0,2 C 62 % 89 % 4 % 1016,6 hPa #21,9 l/m 6,7 km/h (2 Bft) #6:12 h #0 min. 7,8 km/h (2 Bft)
© 2012 W. Hausmann